When you browse on this site, cookies collect data to enhance your experience and personalize the content and advertising you see.
Visit our Privacy Policy to learn more. By continuing to use the site, you agree to this use of cookies and data.
  • In United Kingdom
  • List of Countries
  • For 7 days
  • Water Temperature
  • Satellite Maps
  • Weather Map
  • Weather Widgets
  • user-avatar
    Login

    Hourly Weather Wafra

    Today, 19 July, Friday

    Time Temperature Precipitation Wind Pressure Humidity
    00:00 +39°C° 0 mm 8 mps 735 mmHg 12%
    01:00 +39°C° 0 mm 8 mps 735 mmHg 13%
    02:00 +38°C° 0 mm 8 mps 735 mmHg 15%
    03:00 +38°C° 0 mm 7 mps 735 mmHg 16%
    04:00 +38°C° 0 mm 7 mps 735 mmHg 16%
    05:00 +37°C° 0 mm 8 mps 736 mmHg 17%
    06:00 +37°C° 0 mm 8 mps 736 mmHg 17%
    07:00 +40°C° 0 mm 10 mps 736 mmHg 14%
    08:00 +44°C° 0 mm 12 mps 736 mmHg 11%
    09:00 +48°C° 0 mm 14 mps 736 mmHg 9%
    10:00 +50°C° 0 mm 14 mps 736 mmHg 8%
    11:00 +51°C° 0 mm 14 mps 736 mmHg 7%
    12:00 +52°C° 0 mm 14 mps 736 mmHg 6%
    13:00 +53°C° 0 mm 13 mps 735 mmHg 6%
    14:00 +53°C° 0 mm 13 mps 735 mmHg 6%
    15:00 +52°C° 0 mm 14 mps 735 mmHg 6%
    16:00 +51°C° 0 mm 13 mps 735 mmHg 6%
    17:00 +49°C° 0 mm 11 mps 735 mmHg 7%
    18:00 +48°C° 0 mm 9 mps 735 mmHg 7%
    19:00 +45°C° 0 mm 9 mps 736 mmHg 7%
    20:00 +43°C° 0 mm 8 mps 736 mmHg 8%
    21:00 +40°C° 0 mm 7 mps 736 mmHg 8%
    22:00 +39°C° 0 mm 7 mps 736 mmHg 10%
    23:00 +38°C° 0 mm 7 mps 736 mmHg 11%

    Tomorrow, 20 July, Saturday

    Time Temperature Precipitation Wind Pressure Humidity
    00:00 +36°C° 0 mm 7 mps 737 mmHg 13%
    01:00 +36°C° 0 mm 7 mps 736 mmHg 15%
    02:00 +35°C° 0 mm 8 mps 736 mmHg 17%
    03:00 +35°C° 0 mm 8 mps 736 mmHg 19%
    04:00 +34°C° 0 mm 8 mps 736 mmHg 21%
    05:00 +34°C° 0 mm 7 mps 737 mmHg 23%
    06:00 +34°C° 0 mm 7 mps 737 mmHg 24%
    07:00 +37°C° 0 mm 8 mps 737 mmHg 21%
    08:00 +40°C° 0 mm 8 mps 738 mmHg 19%
    09:00 +43°C° 0 mm 9 mps 738 mmHg 16%
    10:00 +45°C° 0 mm 9 mps 738 mmHg 14%
    11:00 +48°C° 0 mm 8 mps 738 mmHg 12%
    12:00 +49°C° 0 mm 8 mps 738 mmHg 10%
    13:00 +50°C° 0 mm 7 mps 737 mmHg 9%
    14:00 +51°C° 0 mm 7 mps 736 mmHg 8%
    15:00 +52°C° 0 mm 7 mps 736 mmHg 8%
    16:00 +51°C° 0 mm 7 mps 736 mmHg 9%
    17:00 +49°C° 0 mm 6 mps 736 mmHg 10%
    18:00 +48°C° 0 mm 6 mps 736 mmHg 11%
    19:00 +46°C° 0 mm 6 mps 736 mmHg 13%
    20:00 +43°C° 0 mm 5 mps 736 mmHg 14%
    21:00 +40°C° 0 mm 5 mps 736 mmHg 15%
    22:00 +40°C° 0 mm 5 mps 736 mmHg 15%
    23:00 +39°C° 0 mm 6 mps 737 mmHg 16%

    Day after tomorrow, 21 July, Sunday

    Time Temperature Precipitation Wind Pressure Humidity
    00:00 +39°C° 0 mm 6 mps 737 mmHg 16%
    01:00 +38°C° 0 mm 6 mps 736 mmHg 17%
    02:00 +38°C° 0 mm 7 mps 736 mmHg 17%
    03:00 +36°C° 0 mm 7 mps 735 mmHg 18%
    04:00 +36°C° 0 mm 7 mps 736 mmHg 18%
    05:00 +36°C° 0 mm 7 mps 736 mmHg 17%
    06:00 +36°C° 0 mm 7 mps 736 mmHg 17%
    07:00 +39°C° 0 mm 8 mps 737 mmHg 16%
    08:00 +43°C° 0 mm 8 mps 737 mmHg 14%
    09:00 +45°C° 0 mm 9 mps 737 mmHg 12%
    10:00 +48°C° 0 mm 8 mps 737 mmHg 10%
    11:00 +50°C° 0 mm 7 mps 737 mmHg 9%
    12:00 +52°C° 0 mm 7 mps 736 mmHg 7%
    13:00 +52°C° 0 mm 6 mps 736 mmHg 7%
    14:00 +53°C° 0 mm 5 mps 735 mmHg 6%
    15:00 +53°C° 0 mm 5 mps 735 mmHg 6%
    16:00 +50°C° 0 mm 4 mps 734 mmHg 7%
    17:00 +47°C° 0 mm 3 mps 734 mmHg 9%
    18:00 +45°C° 0 mm 2 mps 734 mmHg 10%
    19:00 +42°C° 0 mm 2 mps 734 mmHg 12%
    20:00 +40°C° 0 mm 2 mps 735 mmHg 14%
    21:00 +37°C° 0 mm 2 mps 735 mmHg 16%
    22:00 +37°C° 0 mm 2 mps 735 mmHg 17%
    23:00 +36°C° 0 mm 2 mps 735 mmHg 17%

    22 July, Monday

    Time Temperature Precipitation Wind Pressure Humidity
    00:00 +36°C° 0 mm 2 mps 735 mmHg 17%
    01:00 +36°C° 0 mm 2 mps 735 mmHg 17%
    02:00 +36°C° 0 mm 3 mps 734 mmHg 16%
    03:00 +36°C° 0 mm 4 mps 734 mmHg 16%
    04:00 +36°C° 0 mm 4 mps 734 mmHg 17%
    05:00 +36°C° 0 mm 5 mps 734 mmHg 17%
    06:00 +36°C° 0 mm 5 mps 734 mmHg 18%
    07:00 +39°C° 0 mm 5 mps 735 mmHg 16%
    08:00 +42°C° 0 mm 5 mps 735 mmHg 14%
    09:00 +46°C° 0 mm 5 mps 735 mmHg 12%
    10:00 +46°C° 0 mm 5 mps 735 mmHg 13%
    11:00 +47°C° 0 mm 5 mps 735 mmHg 14%
    12:00 +48°C° 0 mm 5 mps 735 mmHg 15%
    13:00 +48°C° 0 mm 5 mps 735 mmHg 15%
    14:00 +48°C° 0 mm 4 mps 734 mmHg 16%
    15:00 +48°C° 0 mm 4 mps 734 mmHg 16%
    16:00 +46°C° 0 mm 3 mps 734 mmHg 18%
    17:00 +45°C° 0 mm 3 mps 733 mmHg 19%
    18:00 +43°C° 0 mm 2 mps 733 mmHg 20%
    19:00 +40°C° 0 mm 3 mps 734 mmHg 31%
    20:00 +37°C° 0 mm 3 mps 734 mmHg 41%
    21:00 +34°C° 0 mm 3 mps 734 mmHg 51%
    22:00 +34°C° 0 mm 3 mps 734 mmHg 51%
    23:00 +34°C° 0 mm 3 mps 734 mmHg 51%

    23 July, Tuesday

    Time Temperature Precipitation Wind Pressure Humidity
    00:00 +33°C° 0 mm 3 mps 734 mmHg 51%
    01:00 +34°C° 0 mm 3 mps 733 mmHg 49%
    02:00 +34°C° 0 mm 3 mps 733 mmHg 47%
    03:00 +34°C° 0 mm 3 mps 733 mmHg 45%
    04:00 +34°C° 0 mm 3 mps 733 mmHg 38%
    05:00 +35°C° 0 mm 3 mps 733 mmHg 31%
    06:00 +36°C° 0 mm 4 mps 734 mmHg 24%
    07:00 +40°C° 0 mm 4 mps 734 mmHg 20%
    08:00 +43°C° 0 mm 4 mps 734 mmHg 15%
    09:00 +47°C° 0 mm 4 mps 734 mmHg 11%
    10:00 +48°C° 0 mm 4 mps 734 mmHg 11%
    11:00 +49°C° 0 mm 4 mps 734 mmHg 12%
    12:00 +50°C° 0 mm 5 mps 734 mmHg 12%
    13:00 +50°C° 0 mm 4 mps 733 mmHg 11%
    14:00 +50°C° 0 mm 4 mps 733 mmHg 11%
    15:00 +51°C° 0 mm 3 mps 732 mmHg 11%
    16:00 +48°C° 0 mm 3 mps 732 mmHg 11%
    17:00 +47°C° 0 mm 2 mps 732 mmHg 12%
    18:00 +46°C° 0 mm 2 mps 732 mmHg 13%
    19:00 +43°C° 0 mm 2 mps 732 mmHg 16%
    20:00 +40°C° 0 mm 1 mps 733 mmHg 18%
    21:00 +36°C° 0 mm 1 mps 733 mmHg 21%
    22:00 +37°C° 0 mm 2 mps 733 mmHg 25%
    23:00 +37°C° 0 mm 3 mps 733 mmHg 28%

    24 July, Wednesday

    Time Temperature Precipitation Wind Pressure Humidity
    00:00 +36°C° 0 mm 4 mps 733 mmHg 32%
    01:00 +36°C° 0 mm 4 mps 733 mmHg 32%
    02:00 +36°C° 0 mm 4 mps 733 mmHg 31%
    03:00 +35°C° 0 mm 3 mps 733 mmHg 31%
    04:00 +36°C° 0 mm 3 mps 733 mmHg 27%
    05:00 +36°C° 0 mm 3 mps 733 mmHg 22%
    06:00 +37°C° 0 mm 3 mps 733 mmHg 18%
    07:00 +40°C° 0 mm 3 mps 734 mmHg 15%
    08:00 +44°C° 0 mm 3 mps 734 mmHg 11%
    09:00 +46°C° 0 mm 3 mps 734 mmHg 8%
    10:00 +49°C° 0 mm 4 mps 734 mmHg 9%
    11:00 +50°C° 0 mm 4 mps 734 mmHg 11%
    12:00 +52°C° 0 mm 5 mps 734 mmHg 12%
    13:00 +52°C° 0 mm 5 mps 733 mmHg 13%
    14:00 +52°C° 0 mm 5 mps 733 mmHg 14%
    15:00 +52°C° 0 mm 5 mps 733 mmHg 15%
    16:00 +49°C° 0 mm 5 mps 733 mmHg 17%
    17:00 +47°C° 0 mm 5 mps 732 mmHg 20%
    18:00 +45°C° 0 mm 4 mps 732 mmHg 22%
    19:00 +43°C° 0 mm 4 mps 733 mmHg 24%
    20:00 +40°C° 0 mm 3 mps 733 mmHg 25%
    21:00 +38°C° 0 mm 3 mps 733 mmHg 27%
    22:00 +37°C° 0 mm 3 mps 733 mmHg 31%
    23:00 +36°C° 0 mm 4 mps 733 mmHg 36%
    Show more